Weather History for Hilo, HI

Change the Weather History Date:

Friday, November 15, 2013

  Actual Average Record
Temperature  
Mean Temperature 77 °F 74 °F  
Max Temperature 84 °F 81 °F 85 °F (1954)
Min Temperature 70 °F 67 °F 61 °F (1980)
Degree Days  
Heating Degree Days 0 0  
Month to date heating degree days 0 0  
Since 1 July heating degree days 0 0  
Cooling Degree Days 12 9  
Month to date cooling degree days 157 143  
Year to date cooling degree days 3129 2878  
Growing Degree Days 26 (Base 50)    
Moisture  
Dew Point 72 °F    
Average Humidity 80    
Maximum Humidity 94    
Minimum Humidity 65    
Precipitation  
Precipitation 0.01 in 0.55 in 6.40 in (1994)
Month to date precipitation 6.18 7.84  
Year to date precipitation 81.50 107.49  
Snow  
Snow 0.00 in - - ()
Month to date snowfall 0.0  
Since 1 July snowfall 0.0  
Since 1 September snowfall 0.0  
Snow Depth 0.00 in    
Sea Level Pressure  
Sea Level Pressure 30.04 in    
Wind  
Wind Speed 6 mph (South)    
Max Wind Speed 17 mph    
Max Gust Speed 23 mph    
Visibility 10 miles    
Events Rain    
T = Trace of Precipitation, MM = Missing Value Source: NWS Daily Summary

Daily Weather History Graph

Daily Weather History Graph

Search for Another Location

Airport:

Trip Planner

Search our weather history database for the weather conditions in past years. The results will help you decide how hot, cold, wet, or windy it might be!

Date:

Astronomy

Nov. 15, 2013 Rise Set
Actual Time 6:28 AM HST 5:40 PM HST
Civil Twilight 6:05 AM HST 6:03 PM HST
Nautical Twilight 5:39 AM HST 6:30 PM HST
Astronomical Twilight 5:12 AM HST 6:56 PM HST
Moon 4:34 PM HST (11/15) 4:48 AM HST (11/15)
Length of Visible Light 11h 58m
Length of Day
11h 11m
Waxing Gibbous, 97% of the Moon is Illuminated
Nov 15
Waxing Gibbous
Nov 17
Full
Nov 25
Last Quarter
Dec 2
New
Dec 9
First Quarter

Hourly Weather History & Observations

Time (HST) Temp. Heat Index Dew Point Humidity Pressure Visibility Wind Dir Wind Speed Gust Speed Precip Events Conditions
12:53 AM 75.0 °F - 71.1 °F 87% 29.99 in 10.0 mi South 4.6 mph - N/A   Mostly Cloudy
1:42 AM 73.9 °F - 72.0 °F 93% 29.99 in 10.0 mi SSW 4.6 mph - N/A   Mostly Cloudy
1:53 AM 73.9 °F - 72.0 °F 93% 29.98 in 10.0 mi SSW 4.6 mph - N/A   Mostly Cloudy
2:53 AM 73.9 °F - 71.1 °F 91% 29.98 in 10.0 mi Calm Calm - N/A   Mostly Cloudy
3:53 AM 71.1 °F - 70.0 °F 96% 30.00 in 10.0 mi Calm Calm - N/A   Mostly Cloudy
4:53 AM 73.9 °F - 72.0 °F 93% 30.01 in 10.0 mi SW 4.6 mph - N/A   Overcast
5:53 AM 73.9 °F - 72.0 °F 93% 30.03 in 10.0 mi SSW 4.6 mph - N/A   Scattered Clouds
6:44 AM 75.0 °F - 73.0 °F 94% 30.04 in 10.0 mi South 4.6 mph - 0.00 in Rain Light Rain
6:53 AM 75.0 °F - 73.0 °F 94% 30.04 in 10.0 mi SSW 3.5 mph - 0.00 in   Overcast
7:05 AM 73.9 °F - 73.0 °F 97% 30.05 in 10.0 mi SW 3.5 mph - 0.00 in Rain Light Rain
7:18 AM 73.9 °F - 73.0 °F 97% 30.05 in 10.0 mi Calm Calm - 0.00 in   Mostly Cloudy
7:38 AM 75.0 °F - 73.0 °F 94% 30.06 in 9.0 mi SW 4.6 mph - 0.01 in Rain Light Rain
7:53 AM 75.0 °F - 73.9 °F 96% 30.05 in 10.0 mi Calm Calm - 0.01 in   Mostly Cloudy
8:53 AM 78.1 °F - 73.9 °F 87% 30.07 in 10.0 mi SSW 5.8 mph - 0.00 in   Overcast
9:46 AM 82.0 °F 87.9 °F 73.9 °F 76% 30.08 in 10.0 mi SE 10.4 mph - N/A   Overcast
9:53 AM 81.0 °F 86.2 °F 73.9 °F 79% 30.08 in 10.0 mi SE 10.4 mph - N/A   Mostly Cloudy
10:00 AM 81.0 °F 85.8 °F 73.0 °F 77% 30.08 in 10.0 mi ESE 13.8 mph - N/A   Mostly Cloudy
10:53 AM 82.9 °F 88.0 °F 72.0 °F 69% 30.06 in 10.0 mi ESE 13.8 mph - N/A   Partly Cloudy
11:53 AM 84.0 °F 89.6 °F 72.0 °F 67% 30.05 in 10.0 mi SE 10.4 mph - N/A   Partly Cloudy
12:53 PM 84.0 °F 89.0 °F 71.1 °F 65% 30.03 in 10.0 mi ESE 13.8 mph - N/A   Clear
1:53 PM 81.0 °F 84.4 °F 70.0 °F 69% 30.01 in 10.0 mi East 13.8 mph - N/A   Mostly Cloudy
2:53 PM 81.0 °F 84.9 °F 71.1 °F 72% 30.00 in 10.0 mi ESE 8.1 mph - N/A   Overcast
3:53 PM 81.0 °F 84.4 °F 70.0 °F 69% 30.01 in 10.0 mi Variable 4.6 mph - N/A   Overcast
4:53 PM 80.1 °F 83.2 °F 70.0 °F 71% 30.03 in 10.0 mi East 5.8 mph - N/A   Mostly Cloudy
5:53 PM 77.0 °F - 70.0 °F 79% 30.04 in 10.0 mi Calm Calm - N/A   Mostly Cloudy
6:43 PM 75.9 °F - 72.0 °F 87% 30.05 in 10.0 mi Calm Calm - N/A   Mostly Cloudy
6:53 PM 75.9 °F - 72.0 °F 87% 30.05 in 10.0 mi East 5.8 mph - N/A   Mostly Cloudy
7:53 PM 73.9 °F - 72.0 °F 93% 30.06 in 10.0 mi SW 4.6 mph - 0.00 in   Mostly Cloudy
8:53 PM 75.0 °F - 71.1 °F 87% 30.07 in 10.0 mi WSW 5.8 mph - N/A   Overcast
9:53 PM 73.0 °F - 70.0 °F 90% 30.06 in 10.0 mi WSW 5.8 mph - N/A   Overcast
10:53 PM 71.1 °F - 64.9 °F 81% 30.08 in 10.0 mi WSW 8.1 mph - N/A   Clear
11:53 PM 70.0 °F - 64.0 °F 81% 30.06 in 10.0 mi SW 6.9 mph - N/A   Scattered Clouds